Showing default

ION SCV-004, 50993

Orbit data source: Space-Track

ION SCV-004, 50993 is a payload satellite owned by D-ORBIT (IT) in SSO that was launched on Thu, 13 Jan 2022 UTC via an FALCON 9 launch vehicle from the Air Force Eastern Test Range (AFETR). Payload-class satellites include a variety of spacecraft equipped with specific instruments for various scientific and technological missions. These include communications satellites like Starlink; space stations such as the ISS; scientific satellites like the Hubble; Earth observation satellites from companies like Planet Labs, Umbra, and HawkEye 360; GPS; miniature CubeSats for education and research; and military/defense satellites.

Loading next visibility...
Identifier
50993, 2022-002K
Orbit
SSO
Country
Flag of ITIT
Related business
Manufacturer
D-ORBIT
Mission
Operational Commercial Technology
Bus & Motor
ION-SC, PM200
Mass
220 kg wet, 150 kg dry
Launch date (UTC)
2022-01-13 (5 years ago)
Launch vehicle
FALCON 9
Launch site
Air Force Eastern Test Range (AFETR)
Object type
Payload
Rocket body
Debris
Shape & HBR
Box, 2.0 m
Radar Cross Section
0.240 m², Large (>1 m²)

Expand to show TLE details & history
Last TLE update: 14 hours ago

TLE from 14 hours ago
0 ION SCV-004
1 50993U 22002K   26263.60180306  .00003028  00000-0  10277-3 0  9998
2 50993  97.2735 319.4650 0007661  26.9682 333.1956 15.31247434259899
Epoch: 2026-09-20T14:26Z
TLE epoch observation values (Epoch: 2026-09-20T14:26:35.784Z)
Latitude
-0.00005°
Longitude
103.32227°
Altitude
470.514 km
Speed
7.633 km/s
True Right ascension
21h 17m 51s
True Declination
0° 00' 00"
Sunlit
Object was in full shadow at epoch
Visualization orbit readout
Latitude
Unknown
Longitude
Unknown
Altitude
Unknown
Speed
Unknown
Apparent Right ascension
Unknown
Apparent Declination
Unknown
Sunlit
N/A
Visualization observer readout
Local Sidereal Time
21:46:37
Azimuth
Unknown
Elevation
Unknown
Doppler factor
Unknown
Orbital elements
Apogee altitude
474.28 km
Perigee altitude
463.789 km
Semi-major axis
6,847.172 km
Eccentricity
0.00077
Inclination
97.2735°
RAAN
319.465°
Arg. of periapsis
26.9682°
True anomaly
333.15598°
Mean anomaly
333.1956°
Eccentric anomaly
333.17579°
Mean motion
3.83068 °/min
Orbital period
93.98 mins
BSTAR
0.00010277
Loading maneuver chart data...
Computing Atmospheric mass density...

Documentation

Showing up to 5 results
|